Location: Heiligenberg
(48.5381°N, 7.3897°E)
Time: 21:29:42
(UTC+00:00)

USA 305 - Visible Passes

Search period start: 07 October 2022 00:00
Search period end: 17 October 2022 00:00
Orbit: 540 x 550 km, 54.0° (Epoch: 31 August)

Date Brightness Start Highest point End Pass type
(mag) Time Alt. Az. Time Alt. Az. Time Alt. Az.
07 Oct 5.9 01:53:43 13° ENE 01:53:43 13° ENE 01:54:12 10° ENE visible
07 Oct 3.8 03:29:12 34° NNW 03:29:58 37° N 03:33:49 10° ENE visible
07 Oct 3.1 05:05:39 10° WNW 05:09:44 64° NNE 05:13:49 10° ESE visible
08 Oct 6.1 01:45:49 10° ENE 01:45:49 10° ENE 01:45:53 10° ENE visible
08 Oct 3.8 03:21:18 37° NNW 03:21:44 38° N 03:25:35 10° ENE visible
08 Oct 3.0 04:57:19 10° WNW 05:01:27 74° NNE 05:05:32 10° ESE visible
09 Oct 3.8 03:13:23 39° N 03:13:27 39° N 03:17:19 10° ENE visible
09 Oct 2.8 04:48:58 10° WNW 04:53:05 85° NNE 04:57:11 10° ESE visible
10 Oct 3.9 03:05:30 40° NNE 03:05:30 40° NNE 03:09:02 10° E visible
10 Oct 2.7 04:40:58 12° WNW 04:44:41 82° SSW 04:48:47 10° ESE visible
11 Oct 4.1 02:57:38 38° NE 02:57:38 38° NE 03:00:41 10° E visible
11 Oct 2.8 04:33:07 17° WNW 04:36:14 69° SSW 04:40:18 10° SE visible
12 Oct 4.5 02:49:50 32° ENE 02:49:50 32° ENE 02:52:18 10° E visible
12 Oct 2.9 04:25:18 22° WNW 04:27:44 57° SW 04:31:44 10° SE visible
13 Oct 5.0 02:42:05 24° E 02:42:05 24° E 02:43:53 10° E visible
13 Oct 3.1 04:17:34 30° W 04:19:10 47° SW 04:23:05 10° SE visible
14 Oct 5.4 02:34:24 17° E 02:34:24 17° E 02:35:24 10° E visible
14 Oct 3.3 04:09:54 36° WSW 04:10:33 38° SW 04:14:21 10° SSE visible
15 Oct 5.9 02:26:51 10° ESE 02:26:51 10° ESE 02:26:52 10° ESE visible
15 Oct 3.7 04:02:20 31° SSW 04:02:20 31° SSW 04:05:30 10° SSE visible
16 Oct 4.5 03:54:53 19° S 03:54:53 19° S 03:56:33 10° SSE visible
